Regional Weather Roundup
Issued by NWS

Home | Current Version | Previous Version | Graphics & Text | Print | Product List | Glossary On
Versions: 1 2 3 4 5 6 7 8 9 10 11 12 13 14 15 16 17 18 19 20 21 22 23 24 25 26 27 28 29 30 31 32 33 34 35 36 37 38 39 40 41 42 43 44 45 46 47 48 49 50
720
ASUS43 KOAX 271002
RWRNE

WEATHER ROUNDUP FOR NEBRASKA
NATIONAL WEATHER SERVICE OMAHA NE
400 AM CST MON FEB 27 2017

NOTES: SATELLITE DATA IS BEING USED TO AUGMENT CLOUD COVER ABOVE
       12000 FEET.
       "FAIR" INDICATES FEW OR NO CLOUDS BELOW 12,000 FEET WITH NO
       SIGNIFICANT WEATHER AND/OR OBSTRUCTIONS TO VISIBILITY.

  * THESE STATIONS DO NOT REPORT WEATHER SUCH AS RAIN...SNOW OR FOG.

NEZ001>004-019>022-054>056-271100-
NEBRASKA PANHANDLE

CITY           SKY/WX    TMP DP  RH WIND       PRES   REMARKS
SCOTTSBLUFF    CLOUDY    17   8  67 E8        29.74F WCI   7
ALLIANCE       CLOUDY    16   9  74 S14       29.73F WCI   2
CHADRON        CLOUDY    29  12  49 W12       29.71F WCI  19
KIMBALL        CLOUDY    18  11  75 S8        29.71F WCI   8
SIDNEY         CLEAR     17   9  70 S9        29.75F WCI   6
$$

NEZ057>060-069>072-079>082-271100-
SOUTHWEST NEBRASKA

CITY           SKY/WX    TMP DP  RH WIND       PRES   REMARKS
NORTH PLATTE   CLEAR     16  10  77 CALM      29.86F
IMPERIAL       CLEAR     21  10  62 CALM      29.83F
LEXINGTON      CLEAR     18  15  86 CALM      29.88F
MCCOOK         CLEAR     18   9  68 CALM      29.87F
OGALLALA       CLEAR     20  11  70 SW3       29.84S
$$

NEZ005>010-023>029-035>040-094-271100-
NORTH CENTRAL NEBRASKA

CITY           SKY/WX    TMP DP  RH WIND       PRES   REMARKS
VALENTINE      CLOUDY     7   3  84 W5        29.82F WCI  -2
AINSWORTH      CLEAR     18  11  74 SW9       29.83F WCI   7
BROKEN BOW     CLEAR     13   9  84 CALM      29.86F
O`NEILL        CLOUDY    15  10  80 SW8       29.88F WCI   5
ORD            CLEAR     14  10  84 CALM      29.88F
THEDFORD       CLOUDY    13   9  83 CALM      29.84F
$$

NEZ041-046>049-061>064-073>077-083>087-271100-
SOUTH CENTRAL NEBRASKA

CITY           SKY/WX    TMP DP  RH WIND       PRES   REMARKS
GRAND ISLAND   CLEAR     25  16  68 S8        29.92F WCI  16
AURORA         CLEAR     28  17  62 S5        29.92F WCI  23
HASTINGS       CLEAR     28  15  58 S6        29.92F WCI  22
HEBRON         CLEAR     28  20  71 S8        29.95S WCI  20
HOLDREGE       CLEAR     23  11  60 S5        29.89F WCI  17
KEARNEY *      CLEAR     19  12  73 CALM      29.90F
YORK           CLEAR     27  21  80 S6        29.94S WCI  20
$$

NEZ011>018-030>034-042>045-271100-
NORTHEAST NEBRASKA

CITY           SKY/WX    TMP DP  RH WIND       PRES   REMARKS
NORFOLK        CLEAR     21  17  84 S5        29.92F WCI  15
ALBION         CLEAR     17  13  84 CALM      29.92S
BLAIR          CLEAR     29  22  76 S5        29.96S WCI  23
FREMONT        CLEAR     30  22  74 S3        29.96F
TEKAMAH        CLEAR     21  18  88 S5        29.98S WCI  15
WAYNE          CLEAR     17  15  93 S5        29.94F WCI  10
$$

NEZ050>053-065>068-078-088>093-271100-
SOUTHEAST NEBRASKA

CITY           SKY/WX    TMP DP  RH WIND       PRES   REMARKS
LINCOLN        CLEAR     20  17  88 CALM      29.98S
OMAHA EPPLEY   CLEAR     26  19  74 E3        29.98F
BEATRICE       CLEAR     20  17  88 CALM      29.96F
FALLS CITY     CLEAR     22  19  89 E3        29.99S
NEBRASKA CITY  CLEAR     26  16  66 S5        29.98S WCI  21
PLATTSMOUTH    CLEAR     29  18  64 SE6       29.97F WCI  23
$$

NEZ044-045-051>053-067-271100-
OMAHA AREA

CITY           SKY/WX    TMP DP  RH WIND       PRES   REMARKS
OMAHA EPPLEY   CLEAR     26  19  74 E3        29.98F
BLAIR          CLEAR     29  22  76 S5        29.96S WCI  23
FREMONT        CLEAR     30  22  74 S3        29.96F
MILLARD        CLEAR     25  23  92 CALM      29.98S
OFFUTT AFB     CLEAR     20  17  88 CALM      29.98S
PLATTSMOUTH    CLEAR     29  18  64 SE6       29.97F WCI  23
WAHOO          FAIR      24  21  89 CALM      29.96F
$$




USA.gov is the U.S. government's official web portal to all federal, state and local government web resources and services.